Regional Weather Roundup
Issued by NWS Northern Indiana

Home | Current Version | Previous Version | Graphics & Text | Print | Product List | Glossary On
Versions: 1 2 3 4 5 6 7 8 9 10 11 12 13 14 15 16 17 18 19 20 21 22 23 24 25 26 27 28 29 30 31 32 33 34 35 36 37 38 39 40 41 42 43 44 45 46 47 48 49 50
000
ASUS43 KIWX 031710
RWRIWX

KIWX WEATHER ROUNDUP
NATIONAL WEATHER SERVICE NORTHERN INDIANA
1200 PM EST TUE MAR 03 2015

NOTE: "FAIR" INDICATES FEW OR NO CLOUDS BELOW 12,000 FEET WITH NO
SIGNIFICANT WEATHER AND/OR OBSTRUCTIONS TO VISIBILITY.

* THESE STATIONS ARE NOT UNDER NWS QUALITY CONTROL. THEY ALSO MAY NOT
  REPORT WEATHER SUCH AS PRECIPITATION OR FOG.

INZ001>027-031800-
NORTHERN INDIANA

CITY           SKY/WX    TMP DP  RH WIND       PRES   REMARKS
GARY*          LGT RAIN  32  27  80 S17       29.73F WCI  21
VALPARAISO     MIX PCPN  30  30 100 S15G24    29.72F FOG     WCI  19
MICHIGAN CITY* CLOUDY    32  28  86 S14G21    29.71F FOG     WCI  22
LAPORTE*       DRIZZLE   32  31  98 S14G20    29.73F WCI  22
KNOX*            N/A     32  25  74 S15G21    29.73F WCI  22
SOUTH BEND     FRZ RAIN  31  27  85 S15       29.73F FOG     WCI  20
ELKHART*       CLOUDY    28  25  86 S12G21    29.75F FOG     WCI  18
GOSHEN         FRZ RAIN  29  26  89 SE21G28   29.73F FOG     WCI  16
MONTICELLO*    CLOUDY    31  29  94 S9        29.77F FOG     WCI  23
LOGANSPORT*    CLOUDY    30  30 100 S10       29.78F FOG     WCI  21
ROCHESTER*     CLOUDY    32  32 100 S13G18    29.77F FOG     WCI  22
WARSAW*        LGT RAIN  30  28  93 S10G16    29.75F WCI  21
ANGOLA*        CLOUDY    27  25  93 S16       29.73F WCI  14
FORT WAYNE     FRZ DRZL  30  27  88 S14       29.83F FOG     WCI  19
HUNTINGTON*    CLOUDY    30  26  86 S9        29.79F FOG     WCI  21
PERU/GRISSOM   CLOUDY    30  28  92 S3        29.76F FOG
MARION*        CLOUDY    31  29  93 S7        29.82F FOG     WCI  24

$$
INZ028>050-031800-
CENTRAL INDIANA

CITY           SKY/WX    TMP DP  RH WIND       PRES   REMARKS
LAFAYETTE      CLOUDY    32  30  92 S7        29.77F FOG     WCI  26
KOKOMO*        CLOUDY    30  28  93 S15       29.80F WCI  19
MUNCIE*        MIX PCPN  32  30  92 S10       29.84F FOG     WCI  24
INDIANAPOLIS   LGT RAIN  33  30  88 S10       29.83F FOG     WCI  25

$$
MIZ043>046-050>051-056>058-064>065-071>073-077>080-031800-
SOUTHWEST LOWER MICHIGAN

CITY           SKY/WX    TMP DP  RH WIND       PRES   REMARKS
BATTLE CREEK   CLOUDY    28  23  81 S17       29.72F HAZE    WCI  16
BENTON HARBOR  CLOUDY    28  26  92 S12       29.71F FOG     WCI  18
COLDWATER*     LGT SNOW  28  25  87 SE14G23   29.75F WCI  17
HILLSDALE*     MIX PCPN  27  25  94 S14       29.77F WCI  15
HOLLAND        CLOUDY    29  24  82 SE15      29.70F WCI  18
GRAND RAPIDS   LGT SNOW  26  22  84 SE9       29.72F FOG     WCI  17
KALAMAZOO      FRZ RAIN  28  24  85 S9G21     29.72F WCI  19
STURGIS*       MIX PCPN  28  27  93 SE16      29.73F WCI  17
THREE RIVERS*  CLOUDY    29  26  88 S12G18    29.74F FOG     WCI  19

$$
OHZ001>008-015>018-024>025-031800-
NORTHWEST OHIO

CITY           SKY/WX    TMP DP  RH WIND       PRES   REMARKS
WAUSEON*       CLOUDY    28  25  86 S12       29.86F HAZE    WCI  18
DEFIANCE       CLOUDY    30  24  78 SE8G17    29.85F WCI  22
FINDLAY        FRZ RAIN  31  24  75 SE16      29.84F WCI  20
TOLEDO EXPRESS FRZ RAIN  28  22  78 SE5       29.88F WCI  23
TOLEDO METCALF MIX PCPN  30  21  69 SE13      29.87F WCI  20
LIMA           FRZ RAIN  32  26  78 S21G26    29.84F WCI  20

$$
AND FOR LAKE MICHIGAN COASTAL AND OPEN LAKE BUOY OBSERVATIONS

STATION/POSITION TEMP    WIND        PRES    VSBY  WAVE
                 AIR SEA DIR/SP/G                  HT/PER
                 (F)     (DEG/KT/KT) (MB)    (MI)  (FT/S)
CALUMET HARBOR    32     170/ 16/ 22 1004.5F
MICHIGAN CITY     30     150/ 16/ 20   N/A
SAINT JOSEPH      30     160/  4/  9 1007.1R

$$
&&



USA.gov is the U.S. government's official web portal to all federal, state and local government web resources and services.